Regional Weather Roundup
Issued by NWS

Home | Current Version | Previous Version | Graphics & Text | Print | Product List | Glossary On
Versions: 1 2 3 4 5 6 7 8 9 10 11 12 13 14 15 16 17 18 19 20 21 22 23 24 25 26 27 28 29 30 31 32 33 34 35 36 37 38 39 40 41 42 43 44 45 46 47 48 49 50
000
ASUS45 KBOU 260407
RWRCO

WEATHER ROUNDUP FOR COLORADO
NATIONAL WEATHER SERVICE DENVER/BOULDER CO
900 PM MST SUN JAN 25 2015

NOTE: "FAIR" INDICATES FEW OR NO CLOUDS BELOW 12000 FEET WITH NO
SIGNIFICANT WEATHER AND/OR OBSTRUCTIONS TO VISIBILITY.

COZ001>005-013-030-031-260500-
...NORTHWEST COLORADO...

CITY           SKY/WX    TMP DP  RH WIND       PRES   REMARKS
CRAIG          PTCLDY    19  16  88 CALM      30.40S
HAYDEN         PTCLDY    30  21  69 E13       30.39S WCI  20
MEEKER         PTCLDY    23  18  81 E3        30.40S
MOUNT WERNER   NOT AVBL
STEAMBOAT SPGS PTCLDY    27  24  87 CALM      30.42R
WALDEN         PTCLDY    23  19  86 SE8       30.39S WCI  14
$$

COZ006>008-011-260500-
...WEST CENTRAL VALLEYS...

CITY           SKY/WX    TMP DP  RH WIND       PRES   REMARKS
GRAND JUNCTION CLEAR     35  23  61 E6        30.36F WCI  30
MONTROSE       CLEAR     28  19  69 SE7       30.40S WCI  21
EAGLE          CLEAR     28  27  93 CALM      30.44R
RIFLE          CLEAR     31  24  75 SE5       30.40R WCI  26
DELTA          CLEAR     32  21  63 E3        30.39R
NUCLA          CLEAR     36  23  60 CALM      30.37S
$$

COZ017>023-064>068-260500-
...SOUTHWEST COLORADO...

CITY           SKY/WX    TMP DP  RH WIND       PRES   REMARKS
DURANGO        MOCLDY    32  24  72 NE3       30.31S
CORTEZ         CLEAR     31  21  66 CALM      30.29R
PAGOSA SPRINGS MOCLDY    28  19  67 CALM      30.33S
TELLURIDE      CLEAR     32  21  64 CALM      30.41S
WOLF CREEK PAS NOT AVBL
$$

COZ009-010-012-014-032>034-037-058>063-260500-
...CENTRAL COLORADO...

CITY           SKY/WX    TMP DP  RH WIND       PRES   REMARKS
ASPEN          PTCLDY    28  21  75 S6        30.42S WCI  22
BUENA VISTA    CLEAR     41  22  46 NW14G30   30.33S
COPPER MTN     CLEAR     28  19  69 W10       30.49S WCI  19
BERTHOUD PASS  FAIR      19  12  73 MISG      30.46S
COTTONWOOD PAS CLEAR     37  14  38 NW14      30.39R
GUNNISON       PTCLDY    10   3  72 NE3       30.47R
KREMMLING      PTCLDY    23  19  86 CALM      30.44S
LEADVILLE      CLEAR     23  18  81 N8        30.42S WCI  14
MONARCH PASS   PTCLDY    28  14  54 NW12      30.57R WCI  18
SALIDA         CLEAR     36  22  58 SW9       30.41R
SUNLIGHT       CLEAR     32  23  69 N7        30.46R WCI  26
WILKERSON PASS CLEAR     32  14  47 N14G25    30.42S WCI  22
$$

COZ069>075-260500-
...SAN LUIS VALLEY/SANGRE DE CRISTO MOUNTAINS...

CITY           SKY/WX    TMP DP  RH WIND       PRES   REMARKS
ALAMOSA        PTCLDY    22  16  78 NW6       30.34R WCI  14
LA VETA PASS   NOT AVBL
SAGUACHE       PTCLDY    36  23  60 W7        30.36S
$$

COZ035-036-038>040-260500-
...NORTHERN COLORADO FRONT RANGE...

CITY           SKY/WX    TMP DP  RH WIND       PRES   REMARKS
DENVER INTL AP CLEAR     44  25  47 W6        30.19R
DMNS CITY PARK   N/A     46  23  40 S1        30.19R
AURORA         CLEAR     44  24  44 SW6       30.20S
FRONT RANGE AP NOT AVBL
ERIE MUNI ARPT CLEAR     34  26  70 SW3       30.18S
BOULDER MUN AP CLEAR     45  23  42 W5        30.18R
CENTENNIAL     PTCLDY    39  24  55 SW6       30.21R
BROOMFIELD     CLEAR     46  25  42 W9        30.19S
FORT COLLINS   CLEAR     39  27  60 NW5       30.19S
LONGMONT       CLEAR     35  24  64 W3        30.20R
$$

COZ041-046-047-076>085-087-088-260500-
...PIKES PEAK/PALMER DIVIDE AND SOUTHERN FOOTHILLS...

CITY           SKY/WX    TMP DP  RH WIND       PRES   REMARKS
COLO. SPRINGS  CLEAR     33  25  72 NE10      30.23S WCI  25
A. F. ACADEMY  CLEAR     29  23  78 N10       30.24R WCI  20
ELLICOTT       CLEAR    N/A N/A N/A N3        30.22S
FALCON         CLEAR     34  23  64 W7        30.25R WCI  28
FORT CARSON    CLEAR     35  26  68 NW7       30.21R WCI  29
LIMON          CLEAR     27  23  85 W3        30.20S
MONUMENT HILL  CLEAR     34  25  69 W8        30.24R WCI  27
TRINIDAD       CLEAR     37  26  64 W13       30.23S
$$

COZ042>045-048>051-090-091-260500-
...NORTHEAST COLORADO...

CITY           SKY/WX    TMP DP  RH WIND       PRES   REMARKS
GREELEY ARPT   CLEAR     34  23  64 NE6       30.17R WCI  29
AKRON          CLEAR     42  30  62 NW13      30.15S
BURLINGTON     CLEAR     35  29  78 W10       30.14S WCI  27
WRAY           PTCLDY    38  32  79 W9        30.11S
STERLING       CLEAR     43  34  70 NW14      30.13S
HOLYOKE        PTCLDY    45  32  61 W16G24    30.10S
FORT MORGAN    CLEAR     36  28  75 W9        30.17S
$$

COZ086-089-092>099-260500-
...SOUTHEAST COLORADO...

CITY           SKY/WX    TMP DP  RH WIND       PRES   REMARKS
PUEBLO         CLEAR     36  29  75 W6        30.19S
LA JUNTA       CLEAR     39  31  72 W10       30.18R
LAMAR          CLEAR     34  30  85 SW10      30.16R WCI  26
SPRINGFIELD      N/A     34  28  79 W5        30.18S WCI  30
$$


USA.gov is the U.S. government's official web portal to all federal, state and local government web resources and services.